NN3A-3 Weather Reports


time (UTC)temp
F
wind
direction
speed
knots
gust
knots
rain 1hr
in
rain 24hr
in
rain mn
in
humidity
%
barometer
mb
20260507185642 63 128 0.0 0.0 0.00 0.00 0.00 59 1007.6
20260507185141 64 128 0.0 0.0 0.00 0.00 0.00 61 1007.9
20260507184641 62 128 0.0 0.0 0.00 0.00 0.00 61 1007.6
20260507184141 63 128 0.0 0.0 0.00 0.00 0.00 60 1007.9
20260507182642 63 128 0.0 0.0 0.00 0.00 0.00 61 1007.6
20260507182141 64 128 0.0 0.0 0.00 0.00 0.00 60 1007.6
20260507181642 65 128 0.0 0.0 0.00 0.00 0.00 60 1007.6
20260507181141 65 128 0.0 0.0 0.00 0.00 0.00 61 1007.6
20260507180642 65 128 0.0 0.0 0.00 0.00 0.00 61 1007.6
20260507175642 63 128 0.0 0.0 0.00 0.00 0.00 62 1007.9
20260507174643 63 128 0.0 0.0 0.00 0.00 0.00 60 1008.3
20260507172643 64 128 0.0 0.0 0.00 0.00 0.00 61 1008.6
20260507172143 64 128 0.0 0.0 0.00 0.00 0.00 59 1008.6
20260507171643 65 128 0.0 0.0 0.00 0.00 0.00 63 1008.6
20260507171144 64 128 0.0 0.0 0.00 0.00 0.00 64 1008.6
20260507170144 61 128 0.0 0.0 0.00 0.00 0.00 63 1008.6
20260507165144 63 128 0.0 0.0 0.00 0.00 0.00 63 1008.6
20260507164645 63 128 0.0 0.0 0.00 0.00 0.00 62 1008.6
20260507164145 62 128 0.0 0.0 0.00 0.00 0.00 61 1008.6
20260507163144 62 128 0.0 0.0 0.00 0.00 0.00 61 1008.9
20260507161645 64 128 0.0 0.0 0.00 0.00 0.00 60 1008.9
20260507161145 65 128 0.0 0.0 0.00 0.00 0.00 61 1008.9
20260507155646 63 128 0.0 0.0 0.00 0.00 0.00 62 1008.9
20260507155146 64 128 0.0 0.0 0.00 0.00 0.00 61 1008.9
20260507154646 62 128 0.0 0.0 0.00 0.00 0.00 61 1009.3
20260507154146 60 128 0.0 0.0 0.00 0.00 0.00 62 1009.3
20260507153147 61 128 0.0 0.0 0.00 0.00 0.00 61 1009.3
20260507152147 63 128 0.0 0.0 0.00 0.00 0.00 59 1009.3
20260507151647 63 128 0.0 0.0 0.00 0.00 0.00 61 1009.3
20260507151147 63 128 0.0 0.0 0.00 0.00 0.00 61 1009.6
20260507150147 62 128 0.0 0.0 0.00 0.00 0.00 61 1009.6
20260507145648 62 128 0.0 0.0 0.00 0.00 0.00 61 1009.6
20260507145148 60 128 0.0 0.0 0.00 0.00 0.00 62 1009.6
20260507144648 61 128 0.0 0.0 0.00 0.00 0.00 63 1010.0
20260507144148 60 128 0.0 0.0 0.00 0.00 0.00 59 1010.0
20260507143148 60 128 0.0 0.0 0.00 0.00 0.00 60 1010.0
20260507142648 61 128 0.0 0.0 0.00 0.00 0.00 61 1010.0
20260507142149 62 128 0.0 0.0 0.00 0.00 0.00 62 1010.0
20260507141149 62 128 0.0 0.0 0.00 0.00 0.00 61 1010.3
20260507140149 59 128 0.0 0.0 0.00 0.00 0.00 62 1010.3
20260507135649 61 128 0.0 0.0 0.00 0.00 0.00 61 1010.6
20260507134650 60 128 0.0 0.0 0.00 0.00 0.00 63 1010.6
20260507133150 57 128 0.0 0.0 0.00 0.00 0.00 65 1011.0
20260507132650 58 128 0.0 0.0 0.00 0.00 0.00 66 1010.6
20260507132151 59 128 0.0 0.0 0.00 0.00 0.00 67 1010.6
20260507131151 59 128 0.0 0.0 0.00 0.00 0.00 67 1010.6
20260507130151 58 128 0.0 0.0 0.00 0.00 0.00 70 1011.0
20260507125651 57 128 0.0 0.0 0.00 0.00 0.00 70 1011.0
20260507125151 57 128 0.0 0.0 0.00 0.00 0.00 71 1011.0
20260507124651 57 128 0.0 0.0 0.00 0.00 0.00 70 1010.6
20260507123153 57 128 0.0 0.0 0.00 0.00 0.00 74 1010.6
20260507122152 54 128 0.0 0.0 0.00 0.00 0.00 76 1010.6
20260507121652 55 128 0.0 0.0 0.00 0.00 0.00 77 1010.6
20260507121152 52 128 0.0 0.0 0.00 0.00 0.00 79 1010.6
20260507120153 52 128 0.0 0.0 0.00 0.00 0.00 82 1010.6
20260507115653 51 128 0.0 0.0 0.00 0.00 0.00 82 1010.6
20260507115153 48 128 0.0 0.0 0.00 0.00 0.00 82 1011.0
20260507114153 51 128 0.0 0.0 0.00 0.00 0.00 82 1010.6
20260507113653 51 128 0.0 0.0 0.00 0.00 0.00 82 1010.6
20260507113154 52 128 0.0 0.0 0.00 0.00 0.00 84 1010.3
20260507112154 50 128 0.0 0.0 0.00 0.00 0.00 88 1010.3
20260507111654 48 128 0.0 0.0 0.00 0.00 0.00 89 1010.3
20260507111154 46 128 0.0 0.0 0.00 0.00 0.00 91 1010.3
20260507110155 45 128 0.0 0.0 0.00 0.00 0.00 92 1010.3
20260507105155 44 128 0.0 0.0 0.00 0.00 0.00 93 1010.0
20260507104655 42 128 0.0 0.0 0.00 0.00 0.00 93 1010.0
20260507104155 43 128 0.0 0.0 0.00 0.00 0.00 93 1010.0
20260507103155 41 128 0.0 0.0 0.00 0.00 0.00 92 1010.0
20260507102656 42 128 0.0 0.0 0.00 0.00 0.00 92 1010.0
20260507102156 44 128 0.0 0.0 0.00 0.00 0.00 92 1009.6
20260507101157 43 128 0.0 0.0 0.00 0.00 0.00 92 1010.0
20260507100156 42 128 0.0 0.0 0.00 0.00 0.00 91 1009.6
20260507095656 45 128 0.0 0.0 0.00 0.00 0.00 91 1010.0
20260507095157 42 128 0.0 0.0 0.00 0.00 0.00 92 1010.0
20260507094657 45 128 0.0 0.0 0.00 0.00 0.00 92 1010.0
20260507094157 44 128 0.0 0.0 0.00 0.00 0.00 92 1010.0
20260507093157 44 128 0.0 0.0 0.00 0.00 0.00 92 1009.6
20260507092657 45 128 0.0 0.0 0.00 0.00 0.00 91 1010.0
20260507092157 45 128 0.0 0.0 0.00 0.00 0.00 91 1010.0
20260507091658 45 128 0.0 0.0 0.00 0.00 0.00 91 1010.0
20260507090158 47 128 0.0 0.0 0.00 0.00 0.00 91 1009.6
20260507084700 47 128 0.0 0.0 0.00 0.00 0.00 90 1009.6
20260507084158 46 128 0.0 0.0 0.00 0.00 0.00 90 1009.6
20260507083159 45 128 0.0 0.0 0.00 0.00 0.00 91 1009.6
20260507082658 47 128 0.0 0.0 0.00 0.00 0.00 91 1009.6
20260507082158 46 128 0.0 0.0 0.00 0.00 0.00 90 1010.0
20260507081658 47 128 0.0 0.0 0.00 0.00 0.00 90 1010.0
20260507081159 47 128 0.0 0.0 0.00 0.00 0.00 90 1010.0
20260507080700 46 128 0.0 0.0 0.00 0.00 0.00 90 1010.0
20260507080159 48 128 0.0 0.0 0.00 0.00 0.00 90 1010.0
20260507075700 48 128 0.0 0.0 0.00 0.00 0.00 91 1010.0
20260507075159 47 128 0.0 0.0 0.00 0.00 0.00 91 1010.0
20260507074659 46 128 0.0 0.0 0.00 0.00 0.00 91 1010.0
20260507074200 48 128 0.0 0.0 0.00 0.00 0.00 91 1010.0
20260507073200 48 128 0.0 0.0 0.00 0.00 0.00 91 1010.0
20260507072200 47 128 0.0 0.0 0.00 0.00 0.00 91 1010.0
20260507071200 47 128 0.0 0.0 0.00 0.00 0.00 90 1010.0
20260507065701 47 128 0.0 0.0 0.00 0.00 0.00 90 1010.0
20260507065201 48 128 0.0 0.0 0.00 0.00 0.00 90 1009.6
20260507064701 48 128 0.0 0.0 0.00 0.00 0.00 90 1010.0
20260507064201 47 128 0.0 0.0 0.00 0.00 0.00 90 1009.6
20260507063202 48 128 0.0 0.0 0.00 0.00 0.00 91 1009.6
20260507062203 49 128 0.0 0.0 0.00 0.00 0.00 91 1010.0
20260507061702 49 128 0.0 0.0 0.00 0.00 0.00 91 1010.0
20260507061202 47 128 0.0 0.0 0.00 0.00 0.00 92 1010.0
20260507060202 49 128 0.0 0.0 0.00 0.00 0.00 92 1010.0
20260507055203 49 128 0.0 0.0 0.00 0.00 0.00 92 1010.3
20260507054204 49 128 0.0 0.0 0.00 0.00 0.00 92 1010.3
20260507053204 49 128 0.0 0.0 0.00 0.00 0.00 92 1010.3
20260507052704 49 128 0.0 0.0 0.00 0.00 0.00 92 1010.3
20260507052205 49 128 0.0 0.0 0.00 0.00 0.00 92 1010.3
20260507051204 49 128 0.0 0.0 0.00 0.00 0.00 93 1010.3
20260507050204 49 128 0.0 0.0 0.00 0.00 0.00 92 1010.3
20260507045704 50 128 0.0 0.0 0.00 0.00 0.00 92 1010.3
20260507045204 50 128 0.0 0.0 0.00 0.00 0.00 93 1010.3
20260507044705 50 128 0.0 0.0 0.00 0.00 0.00 93 1010.3
20260507044205 49 128 0.0 0.0 0.00 0.00 0.00 93 1010.3
20260507043706 50 128 0.0 0.0 0.00 0.00 0.00 93 1010.3
20260507043205 50 128 0.0 0.0 0.00 0.00 0.00 93 1010.3
20260507042705 50 128 0.0 0.0 0.00 0.00 0.00 93 1010.3
20260507042205 50 128 0.0 0.0 0.00 0.00 0.00 94 1010.3
20260507041706 49 128 0.0 0.0 0.00 0.00 0.00 94 1010.3
20260507041207 49 128 0.0 0.0 0.00 0.00 0.00 94 1010.3
20260507040206 49 128 0.0 0.0 0.00 0.00 0.00 94 1010.6
20260507035706 50 128 0.0 0.0 0.00 0.00 0.00 94 1010.3
20260507035206 51 128 0.0 0.0 0.00 0.00 0.00 93 1010.3
20260507034706 50 128 0.0 0.0 0.00 0.00 0.00 93 1010.3
20260507034207 50 128 0.0 0.0 0.00 0.00 0.00 93 1010.6
20260507033207 51 128 0.0 0.0 0.00 0.00 0.00 94 1010.6
20260507032708 51 128 0.0 0.0 0.00 0.00 0.00 95 1010.3
20260507032207 51 128 0.0 0.0 0.00 0.00 0.00 95 1010.3
20260507031207 51 128 0.0 0.0 0.00 0.00 0.00 95 1010.3
20260507030208 51 128 0.0 0.0 0.00 0.00 0.00 95 1010.3
20260507025708 52 128 0.0 0.0 0.00 0.00 0.00 95 1010.3
20260507025208 52 128 0.0 0.0 0.00 0.00 0.00 95 1010.0
20260507024708 51 128 0.0 0.0 0.00 0.00 0.00 95 1010.0
20260507024208 52 128 0.0 0.0 0.00 0.00 0.14 95 1010.3
20260507022709 51 128 0.0 0.0 0.00 0.00 0.14 95 1010.3
20260507022210 51 128 0.0 0.0 0.00 0.00 0.14 94 1010.3
20260507020709 52 128 0.0 0.0 0.00 0.00 0.14 95 1010.0
20260507020210 51 128 0.0 0.0 0.00 0.00 0.14 95 1009.6
20260507015710 52 128 0.0 0.0 0.00 0.00 0.14 95 1009.3
20260507015210 51 128 0.0 0.0 0.00 0.00 0.14 95 1009.6
20260507014711 51 128 0.0 0.0 0.00 0.00 0.14 94 1009.3
20260507014210 51 128 0.0 0.0 0.00 0.00 0.14 95 1009.6
20260507013210 52 128 0.0 0.0 0.00 0.00 0.14 95 1009.6
20260507012711 50 128 0.0 0.0 0.00 0.00 0.14 94 1009.3
20260507011712 51 128 0.0 0.0 0.00 0.00 0.14 94 1009.3
20260507011211 51 128 0.0 0.0 0.00 0.00 0.14 94 1009.3
20260507010213 51 128 0.0 0.0 0.00 0.00 0.14 94 1009.6
20260507005712 50 128 0.0 0.0 0.00 0.00 0.14 94 1009.6
20260507005214 50 128 0.0 0.0 0.00 0.00 0.14 94 1009.6
20260507004713 51 128 0.0 0.0 0.00 0.00 0.14 94 1009.6
20260507003212 52 128 0.0 0.0 0.00 0.00 0.14 94 1010.0
20260507002712 51 128 0.0 0.0 0.00 0.00 0.14 94 1010.0
20260507002212 52 128 0.0 0.0 0.00 0.00 0.14 94 1010.0
20260507001713 52 128 0.0 0.0 0.00 0.00 0.14 94 1010.3
20260507001213 51 128 0.0 0.0 0.00 0.00 0.14 94 1010.0
20260507000213 51 128 0.0 0.0 0.00 0.00 0.14 94 1009.6
20260506235715 52 128 0.0 0.0 0.00 0.00 0.14 94 1009.6
20260506235213 52 128 0.0 0.0 0.00 0.00 0.14 94 1009.3
20260506234214 51 128 0.0 0.0 0.00 0.00 0.14 94 1009.6
20260506233215 51 128 0.0 0.0 0.00 0.00 0.14 95 1009.6
20260506232715 53 128 0.0 0.0 0.00 0.00 0.14 95 1009.3
20260506232215 51 128 0.0 0.0 0.00 0.00 0.14 95 1009.3
20260506231715 51 128 0.0 0.0 0.00 0.00 0.14 95 1009.3
20260506231215 53 128 0.0 0.0 0.00 0.00 0.14 95 1008.9
20260506230215 52 128 0.0 0.0 0.00 0.00 0.14 96 1008.6
20260506225215 53 128 0.0 0.0 0.00 0.00 0.14 95 1008.6
20260506224715 53 128 0.0 0.0 0.00 0.00 0.14 95 1008.6
20260506223216 52 128 0.0 0.0 0.00 0.00 0.14 96 1008.6
20260506222216 53 128 0.0 0.0 0.00 0.00 0.14 96 1008.6
20260506221717 54 128 0.0 0.0 0.00 0.00 0.14 96 1008.6
20260506221216 54 128 0.0 0.0 0.00 0.00 0.14 96 1008.6
20260506220217 54 128 0.0 0.0 0.00 0.00 0.14 96 1008.6
20260506215717 53 128 0.0 0.0 0.00 0.00 0.14 96 1008.3
20260506215217 54 128 0.0 0.0 0.00 0.00 0.14 96 1008.3
20260506214217 54 128 0.0 0.0 0.00 0.00 0.14 96 1008.3
20260506213217 54 128 0.0 0.0 0.00 0.00 0.14 96 1008.3
20260506212218 54 128 0.0 0.0 0.00 0.00 0.14 96 1007.9
20260506211719 54 128 0.0 0.0 0.00 0.00 0.14 96 1007.9
20260506211219 54 128 0.0 0.0 0.00 0.00 0.14 96 1007.6
20260506210219 53 128 0.0 0.0 0.00 0.00 0.14 96 1007.6
20260506205719 53 128 0.0 0.0 0.00 0.00 0.14 96 1007.6
20260506205219 54 128 0.0 0.0 0.00 0.00 0.14 96 1007.6
20260506204220 55 128 0.0 0.0 0.00 0.00 0.14 96 1007.6
20260506203220 54 128 0.0 0.0 0.00 0.00 0.14 96 1007.6
20260506202721 54 128 0.0 0.0 0.00 0.00 0.14 96 1007.2
20260506202220 54 128 0.0 0.0 0.00 0.00 0.14 96 1007.2
20260506201722 55 128 0.0 0.0 0.00 0.00 0.14 96 1007.2
20260506201221 54 128 0.0 0.0 0.00 0.00 0.14 97 1007.2
20260506200220 54 128 0.0 0.0 0.00 0.00 0.14 97 1007.2
20260506195721 53 128 0.0 0.0 0.00 0.00 0.14 97 1007.2
20260506195221 56 128 0.0 0.0 0.00 0.00 0.14 97 1007.2
20260506194722 54 128 0.0 0.0 0.00 0.00 0.14 97 1007.6
20260506194222 53 128 0.0 0.0 0.00 0.00 0.14 97 1007.2
20260506193222 54 128 0.0 0.0 0.00 0.00 0.14 97 1007.2
20260506192722 55 128 0.0 0.0 0.00 0.00 0.14 96 1007.2
20260506191722 54 128 0.0 0.0 0.00 0.00 0.14 96 1007.2
20260506191222 55 128 0.0 0.0 0.00 0.00 0.14 96 1007.2
20260506190222 56 128 0.0 0.0 0.00 0.00 0.14 96 1006.9
20260506185723 56 128 0.0 0.0 0.00 0.00 0.14 96 1006.9